Content
SEND FEEDBACK

Daily
Averages
Monthly
Summary
United States of America

PUT IN BAY, OHIO


Home > North America > United States > Ohio
Elevation: 561 feet     Latitude: 41 39N     Longitude: 082 48W

WEATHER
 
SELECT A DAY
Number of Records: 122,906;   Date Range: 12/10/00 - 8/31/14
 
SHARE

PRINT THIS DATA

[ ← Previous Day ]
WEATHER ALMANAC - MAY 6, 2013
[ Next Day → ]
[ °C ]   °F
Weather ElementAverageHighLow
Temperature58.6 °F69.4 °F (5:00 pm)47.8 °F (3:00 am)
Dewpoint41.3 °F46.9 °F (3:00 pm)34.7 °F (4:00 am)
Humidity51.8 %74 % (3:00 am)33 % (8:00 pm)
Barometer30.01 in30.06 in (10:00 am)29.97 in (6:00 pm)
Wind Speed4.1 mph6.9 mph (3:00 pm)
Weather ElementAverage
Wind DirectionESE (96.3 °)

Weather ElementTotal
Precipitation---
Heating Degree Days6.4 (Base 65)
Growing Degree Days8.6 (Base 50)
Averaged from 27 records on May 6, 2013
WEATHER CONDITIONS BREAKOUT
WIND DIRECTION BREAKOUT
WEATHER BY HOUR - MAY 6, 2013
[ °C ]   °F
Local TimeTemperatureDewpointHumidityBarometerVisibilityWind DirectionWind SpeedGust SpeedPrecipitationEventsConditions
1:00 AM53.4 °F42.6 °F67 %30.01 inNE (50°)5.8 mph
2:00 AM51.0 °F42.0 °F61 %30.01 inENE (60°)4.6 mph
2:00 AM51.4 °F41.5 °F69 %30.01 inENE (60°)4.6 mph
3:00 AM47.8 °F39.9 °F74 %30.01 inENE (60°)3.5 mph
4:00 AM51.6 °F34.7 °F52 %29.99 inESE (110°)2.3 mph
5:00 AM50.4 °F35.4 °F57 %30.00 inEast (100°)2.3 mph
6:00 AM49.8 °F36.3 °F60 %30.01 inEast (80°)2.3 mph
7:00 AM52.0 °F38.5 °F60 %30.02 inEast (100°)2.3 mph
8:00 AM55.0 °F39.0 °F44 %30.04 inESE (110°)4.6 mph
8:00 AM55.2 °F39.4 °F55 %30.04 inESE (110°)4.6 mph
9:00 AM57.4 °F40.6 °F54 %30.05 inEast (90°)4.6 mph
10:00 AM58.8 °F41.0 °F52 %30.06 inESE (110°)4.6 mph
11:00 AM60.8 °F41.7 °F49 %30.06 inESE (110°)4.6 mph
12:00 PM61.5 °F41.4 °F48 %30.06 inSE (130°)4.6 mph
1:00 PM63.7 °F44.6 °F50 %30.04 inESE (120°)5.8 mph
2:00 PM64.0 °F44.0 °F37 %30.03 inESE (110°)5.8 mph
2:00 PM63.9 °F44.2 °F49 %30.03 inESE (110°)5.8 mph
3:00 PM66.7 °F46.9 °F49 %30.01 inESE (120°)6.9 mph
4:00 PM67.5 °F46.2 °F46 %30.00 inESE (110°)5.8 mph
5:00 PM69.4 °F46.6 °F44 %29.98 inEast (100°)4.6 mph
6:00 PM68.4 °F42.4 °F39 %29.97 inEast (90°)4.6 mph
7:00 PM67.3 °F42.1 °F40 %29.97 inEast (90°)4.6 mph
8:00 PM64.0 °F42.0 °F33 %29.98 inEast (90°)2.3 mph
8:00 PM64.2 °F42.3 °F45 %29.98 inEast (90°)2.3 mph
9:00 PM57.7 °F42.6 °F57 %29.99 inSE (130°)2.3 mph
10:00 PM55.0 °F41.9 °F61 %30.01 inEast (80°)2.3 mph
11:00 PM55.6 °F35.4 °F47 %30.01 inEast (80°)2.3 mph
Hourly data recorded from CXHA, located miles away from Put In Bay, Ohio







STORIES FROM OUR PARTNERS